TimeCST,TemperatureF,Dew PointF,Humidity,Sea Level PressureIn,VisibilityMPH,Wind Direction,Wind SpeedMPH,Gust SpeedMPH,PrecipitationIn,Events,Conditions,WindDirDegrees,DateUTC
12:56 AM,7.0,3.0,84,30.12,10.0,North,4.6,-,N/A,,Clear,10,2012-12-23 06:56:00
1:56 AM,7.0,3.0,84,30.12,10.0,NNE,9.2,-,N/A,,Clear,30,2012-12-23 07:56:00
2:56 AM,8.1,3.0,80,30.13,10.0,North,5.8,-,N/A,,Clear,10,2012-12-23 08:56:00
3:56 AM,7.0,3.0,84,30.13,10.0,NNE,5.8,-,N/A,,Clear,20,2012-12-23 09:56:00
4:56 AM,5.0,1.9,87,30.15,10.0,North,4.6,-,N/A,,Clear,360,2012-12-23 10:56:00
5:42 AM,5.0,1.4,85,30.05,10.0,North,4.6,-,N/A,,Partly Cloudy,10,2012-12-23 11:42:00
5:56 AM,5.0,1.0,84,30.15,10.0,North,3.5,-,N/A,,Partly Cloudy,360,2012-12-23 11:56:00
6:56 AM,3.0,-0.0,87,30.16,10.0,NW,3.5,-,N/A,,Partly Cloudy,320,2012-12-23 12:56:00
7:56 AM,3.9,-0.0,84,30.14,10.0,NE,6.9,-,N/A,,Partly Cloudy,50,2012-12-23 13:56:00
8:56 AM,7.0,3.0,84,30.14,10.0,ENE,5.8,-,N/A,,Clear,60,2012-12-23 14:56:00
9:56 AM,10.0,5.0,80,30.14,10.0,East,5.8,-,N/A,,Clear,80,2012-12-23 15:56:00
10:23 AM,10.4,5.0,79,30.04,8.0,East,8.1,-,N/A,,Scattered Clouds,90,2012-12-23 16:23:00
10:32 AM,10.4,6.8,85,30.04,8.0,East,8.1,-,0.00,Snow,Light Snow,80,2012-12-23 16:32:00
10:49 AM,10.4,6.8,85,30.04,8.0,East,5.8,-,0.00,,Scattered Clouds,80,2012-12-23 16:49:00
10:56 AM,12.0,7.0,80,30.14,8.0,ENE,5.8,-,0.00,,Scattered Clouds,70,2012-12-23 16:56:00
11:56 AM,14.0,9.0,80,30.13,10.0,East,6.9,-,N/A,,Clear,90,2012-12-23 17:56:00
12:56 PM,15.1,9.0,77,30.10,10.0,East,9.2,-,N/A,,Clear,80,2012-12-23 18:56:00
1:56 PM,15.1,9.0,77,30.09,10.0,ESE,8.1,-,N/A,,Clear,110,2012-12-23 19:56:00
2:56 PM,15.1,9.0,77,30.07,10.0,East,9.2,-,N/A,,Clear,100,2012-12-23 20:56:00
3:56 PM,15.1,9.0,77,30.10,10.0,ENE,5.8,-,N/A,,Clear,70,2012-12-23 21:56:00
4:56 PM,12.0,8.1,84,30.12,10.0,NE,6.9,-,N/A,,Clear,50,2012-12-23 22:56:00
5:56 PM,12.0,7.0,80,30.09,10.0,East,5.8,-,N/A,,Clear,100,2012-12-23 23:56:00
6:56 PM,10.9,7.0,84,30.09,10.0,Calm,Calm,-,N/A,,Clear,0,2012-12-24 00:56:00
7:19 PM,8.6,6.8,92,30.00,10.0,Calm,Calm,-,N/A,,Mostly Cloudy,0,2012-12-24 01:19:00
7:56 PM,12.0,8.1,84,30.11,10.0,Calm,Calm,-,N/A,,Overcast,0,2012-12-24 01:56:00
8:56 PM,12.9,9.0,84,30.11,9.0,NW,4.6,-,0.00,Snow,Light Snow,320,2012-12-24 02:56:00
9:56 PM,12.0,9.0,88,30.09,7.0,Calm,Calm,-,0.00,Snow,Light Snow,0,2012-12-24 03:56:00
10:39 PM,12.2,8.6,85,29.99,6.0,Calm,Calm,-,0.00,Snow,Light Snow,0,2012-12-24 04:39:00
10:56 PM,12.9,9.0,84,30.09,7.0,NNW,3.5,-,0.00,Snow,Light Snow,330,2012-12-24 04:56:00
11:56 PM,12.0,9.0,88,30.09,7.0,NW,8.1,-,0.00,Snow,Light Snow,310,2012-12-24 05:56:00